This is the latest recevied weather packets stored in our database for station/object XE2MEM-21. If no packets are shown the sender has not sent any weather packets the latest 10 day(s).
| Time | Temp. | Humidity | Pressure | Rain* | Wind** | Luminosity | Snow |
|---|---|---|---|---|---|---|---|
| 1777564706 | 32.22° C | 100% | 1005.3 hPa | - | - | - | - |
| 1777563849 | 31.67° C | 100% | 1005.4 hPa | - | - | - | - |
| 1777556166 | 28.89° C | 100% | 1005.5 hPa | - | - | - | - |
| 1777555993 | 28.33° C | 100% | 1005.6 hPa | - | - | - | - |
| 1777554918 | 26.67° C | 100% | 1005.4 hPa | - | - | - | - |
| 1777554784 | 26.67° C | 100% | 1005.4 hPa | - | - | - | - |
| 1777554751 | 26.67° C | 100% | 1005.3 hPa | - | - | - | - |
| 1777554240 | 26.67° C | 100% | 1004.9 hPa | - | - | - | - |
| 1777553536 | 26.11° C | 100% | 1005 hPa | - | - | - | - |
| 1777553258 | 26.11° C | 100% | 1004.8 hPa | - | - | - | - |
| 1777552358 | 25.56° C | 100% | 1004.7 hPa | - | - | - | - |
| 1777550655 | 25.56° C | 100% | 1004.6 hPa | - | - | - | - |
| 1777549868 | 25.56° C | 100% | 1004.6 hPa | - | - | - | - |
| 1777548968 | 25.56° C | 100% | 1004.8 hPa | - | - | - | - |
| 1777548068 | 25.56° C | 100% | 1004.7 hPa | - | - | - | - |
| 1777547523 | 25.56° C | 100% | 1004.5 hPa | - | - | - | - |
| 1777545531 | 26.11° C | 100% | 1004.2 hPa | - | - | - | - |
| 1777544631 | 26.11° C | 100% | 1004.1 hPa | - | - | - | - |
| 1777544338 | 26.67° C | 100% | 1004 hPa | - | - | - | - |
| 1777544132 | 26.11° C | 100% | 1003.9 hPa | - | - | - | - |
| 1777544030 | 26.11° C | 100% | 1003.9 hPa | - | - | - | - |
| 1777543129 | 26.11° C | 100% | 1003.7 hPa | - | - | - | - |
| 1777542685 | 26.67° C | 100% | 1003.9 hPa | - | - | - | - |
| 1777541785 | 26.67° C | 100% | 1003.8 hPa | - | - | - | - |
| 1777531665 | 26.67° C | 100% | 1004.7 hPa | - | - | - | - |
* Rain since midnight (hover to see other rain measurements)
** Current wind speed in m/s (hover to see current wind gust speed)